5B4ALR-13 Weather Reports


time (UTC)temp
F
wind
direction
speed
knots
gust
knots
rain 1hr
in
rain 24hr
in
rain mn
in
humidity
%
barometer
mb
20260507143108 74 270 0.0 0.0 0.00 0.00 0.00 47 1018.1
20260507142108 74 135 0.0 0.0 0.00 0.00 0.00 47 1018.2
20260507141109 75 180 0.9 0.9 0.00 0.00 0.00 46 1018.1
20260507140108 75 180 0.0 0.0 0.00 0.00 0.00 46 1018.2
20260507135109 75 225 0.0 0.0 0.00 0.00 0.00 46 1018.2
20260507134108 76 180 0.9 0.9 0.00 0.00 0.00 46 1018.4
20260507133109 75 180 0.0 0.0 0.00 0.00 0.00 47 1018.3
20260507132115 74 180 1.7 4.3 0.00 0.00 0.00 47 1018.4
20260507131108 74 180 0.0 0.9 0.00 0.00 0.00 47 1018.5
20260507130108 75 180 0.9 0.9 0.00 0.00 0.00 47 1018.5
20260507125108 75 225 1.7 1.7 0.00 0.00 0.00 45 1018.6
20260507124113 75 180 0.9 0.9 0.00 0.00 0.00 46 1018.7
20260507123108 73 90 0.9 0.9 0.00 0.00 0.00 50 1018.8
20260507122111 74 45 0.9 1.7 0.00 0.00 0.00 47 1018.9
20260507121108 75 90 0.9 0.9 0.00 0.00 0.00 45 1019.0
20260507120108 75 180 1.7 1.7 0.00 0.00 0.00 46 1019.0
20260507115108 75 180 1.7 2.6 0.00 0.00 0.00 48 1019.0
20260507114108 74 180 0.9 0.9 0.00 0.00 0.00 51 1019.2
20260507113108 74 135 0.9 0.9 0.00 0.00 0.00 52 1019.4
20260507112108 73 90 2.6 3.5 0.00 0.00 0.00 53 1019.3
20260507111108 73 90 0.9 4.3 0.00 0.00 0.00 50 1019.3
20260507110108 73 135 1.7 3.5 0.00 0.00 0.00 50 1019.3
20260507105108 72 45 1.7 1.7 0.00 0.00 0.00 53 1019.4
20260507104108 72 90 1.7 5.2 0.00 0.00 0.00 52 1019.3
20260507103110 73 180 0.9 0.9 0.00 0.00 0.00 50 1019.4
20260507102108 73 180 0.9 0.9 0.00 0.00 0.00 49 1019.4
20260507101108 73 135 0.0 0.0 0.00 0.00 0.00 48 1019.3
20260507100108 73 90 0.0 0.9 0.00 0.00 0.00 48 1019.4
20260507095113 74 90 0.0 0.0 0.00 0.00 0.00 47 1019.5
20260507094111 73 45 0.0 1.7 0.00 0.00 0.00 50 1019.7
20260507093110 73 90 0.9 0.9 0.00 0.00 0.00 49 1019.6
20260507092110 73 45 0.9 0.9 0.00 0.00 0.00 50 1019.6
20260507091111 73 90 0.9 1.7 0.00 0.00 0.00 50 1019.7
20260507090111 73 90 0.9 0.9 0.00 0.00 0.00 49 1019.7
20260507085108 73 90 0.9 1.7 0.00 0.00 0.00 45 1019.7
20260507084112 73 90 0.9 0.9 0.00 0.00 0.00 48 1019.8
20260507083108 73 90 1.7 6.1 0.00 0.00 0.00 46 1019.7
20260507082111 73 90 0.9 0.9 0.00 0.00 0.00 44 1019.8
20260507081109 74 90 0.0 0.0 0.00 0.00 0.00 43 1019.8
20260507080108 73 45 0.9 3.5 0.00 0.00 0.00 43 1019.8
20260507075108 74 90 0.9 2.6 0.00 0.00 0.00 42 1019.8
20260507074108 73 67 0.9 3.5 0.00 0.00 0.00 45 1019.7
20260507073108 73 90 1.7 4.3 0.00 0.00 0.00 45 1019.8
20260507072111 73 90 0.9 0.9 0.00 0.00 0.00 46 1019.8
20260507071108 72 135 0.9 0.9 0.00 0.00 0.00 48 1019.7
20260507070108 73 315 0.9 0.9 0.00 0.00 0.00 46 1019.6
20260507065108 73 90 0.0 0.0 0.00 0.00 0.00 48 1019.7
20260507064108 73 90 0.0 0.9 0.00 0.00 0.00 46 1019.6
20260507063111 73 135 0.0 0.9 0.00 0.00 0.00 46 1019.7
20260507062113 74 90 0.9 0.9 0.00 0.00 0.00 43 1019.6
20260507061108 74 90 0.0 0.0 0.00 0.00 0.00 40 1019.5
20260507060109 74 90 0.9 0.9 0.00 0.00 0.00 42 1019.5
20260507055108 74 45 0.0 0.0 0.00 0.00 0.00 43 1019.5
20260507054109 73 225 0.0 0.0 0.00 0.00 0.00 43 1019.4
20260507053109 72 315 0.0 0.0 0.00 0.00 0.00 44 1019.4
20260507052110 73 0 0.0 0.9 0.00 0.00 0.00 45 1019.4
20260507051108 72 0 0.0 0.0 0.00 0.00 0.00 49 1019.4
20260507050108 71 0 0.0 0.0 0.00 0.00 0.00 50 1019.4
20260507045111 71 225 0.9 0.9 0.00 0.00 0.00 52 1019.4
20260507044108 70 270 0.0 0.0 0.00 0.00 0.00 54 1019.3
20260507043109 68 315 0.0 0.0 0.00 0.00 0.00 55 1019.2
20260507042108 68 0 0.0 0.0 0.00 0.00 0.00 55 1019.2
20260507041108 67 292 0.0 0.0 0.00 0.00 0.00 56 1019.1
20260507040108 66 270 0.0 0.0 0.00 0.00 0.00 59 1019.1
20260507035108 64 315 0.0 0.0 0.00 0.00 0.00 63 1019.0
20260507034108 62 315 0.0 0.0 0.00 0.00 0.00 65 1019.0
20260507033108 60 315 0.0 0.0 0.00 0.00 0.00 67 1018.9
20260507032108 58 315 0.0 0.0 0.00 0.00 0.00 72 1018.9
20260507031108 58 315 0.0 0.0 0.00 0.00 0.00 73 1018.9
20260507030108 58 270 0.0 0.0 0.00 0.00 0.00 74 1018.9
20260507025108 57 315 0.0 0.0 0.00 0.00 0.00 74 1018.8
20260507024108 57 0 0.0 0.0 0.00 0.00 0.00 74 1018.6
20260507023108 57 0 0.0 0.0 0.00 0.00 0.00 74 1018.5
20260507022108 58 0 0.0 0.0 0.00 0.00 0.00 73 1018.5
20260507021108 58 315 0.0 0.0 0.00 0.00 0.00 73 1018.4
20260507020108 58 0 0.0 0.0 0.00 0.00 0.00 73 1018.4
20260507015108 58 0 0.0 0.0 0.00 0.00 0.00 73 1018.2
20260507014108 58 315 0.0 0.0 0.00 0.00 0.00 73 1018.2
20260507013108 58 292 0.0 0.0 0.00 0.00 0.00 72 1018.2
20260507012107 58 315 0.0 0.0 0.00 0.00 0.00 72 1018.1
20260507011108 58 315 0.0 0.0 0.00 0.00 0.00 72 1018.2
20260507010108 58 270 0.0 0.0 0.00 0.00 0.00 72 1018.2
20260507005108 58 315 0.0 0.0 0.00 0.00 0.00 72 1018.2
20260507004108 59 270 0.0 0.0 0.00 0.00 0.00 72 1018.2
20260507003108 59 0 0.0 0.0 0.00 0.00 0.00 72 1018.3
20260507002107 59 90 0.0 0.0 0.00 0.00 0.00 72 1018.3
20260507001108 59 45 0.0 0.0 0.00 0.00 0.00 71 1018.3
20260507000107 59 225 0.0 0.0 0.00 0.00 0.00 71 1018.3
20260506235108 59 0 0.0 0.0 0.00 0.00 0.00 71 1018.3
20260506234107 60 45 0.0 0.0 0.00 0.00 0.00 71 1018.3
20260506233108 60 315 0.0 0.0 0.00 0.00 0.00 70 1018.3
20260506232107 60 45 0.0 0.0 0.00 0.00 0.00 70 1018.3
20260506231107 60 337 0.0 0.0 0.00 0.00 0.00 70 1018.3
20260506230107 60 337 0.0 0.0 0.00 0.00 0.00 70 1018.4
20260506225107 60 315 0.9 1.7 0.00 0.00 0.00 69 1018.5
20260506224107 60 315 0.0 0.0 0.00 0.00 0.00 69 1018.5
20260506223107 60 0 0.0 0.0 0.00 0.00 0.00 69 1018.4
20260506222107 60 315 0.0 0.0 0.00 0.00 0.00 68 1018.5
20260506221107 61 0 0.0 0.0 0.00 0.00 0.00 68 1018.5
20260506220107 61 0 0.9 1.7 0.00 0.00 0.00 68 1018.5
20260506215107 61 0 0.0 0.0 0.00 0.00 0.00 68 1018.5
20260506214107 61 315 0.0 1.7 0.00 0.00 0.00 68 1018.6
20260506213108 61 225 0.0 0.0 0.00 0.00 0.00 67 1018.4
20260506212107 62 315 0.0 0.0 0.00 0.00 0.00 67 1018.5
20260506211107 62 315 0.0 0.9 0.00 0.00 0.00 67 1018.4
20260506210108 62 0 0.0 0.9 0.00 0.00 0.00 67 1018.4
20260506205107 62 270 0.9 0.9 0.00 0.00 0.00 66 1018.4
20260506204107 62 315 0.0 0.9 0.00 0.00 0.00 66 1018.4
20260506203108 62 0 0.0 0.0 0.00 0.00 0.00 66 1018.4
20260506202107 62 315 0.0 0.0 0.00 0.00 0.00 65 1018.4
20260506201107 63 270 0.0 0.9 0.00 0.00 0.00 65 1018.5
20260506200107 63 315 0.9 0.9 0.00 0.00 0.00 65 1018.5
20260506195107 63 0 0.0 0.0 0.00 0.00 0.00 64 1018.5
20260506194107 63 315 0.0 0.0 0.00 0.00 0.00 64 1018.5
20260506193107 63 292 0.0 0.9 0.00 0.00 0.00 63 1018.5
20260506192107 63 315 0.0 0.0 0.00 0.00 0.00 62 1018.4
20260506191107 63 270 0.0 0.0 0.00 0.00 0.00 61 1018.4
20260506190107 64 225 0.0 0.0 0.00 0.00 0.00 60 1018.3
20260506185107 64 315 0.0 0.0 0.00 0.00 0.00 59 1018.2
20260506184107 64 315 0.0 0.9 0.00 0.00 0.00 58 1018.2
20260506183107 65 270 0.0 0.0 0.00 0.00 0.00 58 1018.1
20260506182107 65 225 0.0 0.0 0.00 0.00 0.00 57 1018.0
20260506181107 65 180 0.0 0.0 0.00 0.00 0.00 57 1017.9
20260506180107 65 225 0.0 0.0 0.00 0.00 0.00 57 1017.9
20260506175107 65 180 0.0 0.0 0.00 0.00 0.00 57 1017.7
20260506174107 66 180 0.0 0.0 0.00 0.00 0.00 57 1017.6
20260506173107 66 247 0.0 0.0 0.00 0.00 0.00 57 1017.5
20260506172107 66 225 0.0 0.0 0.00 0.00 0.00 57 1017.5
20260506171107 66 225 0.9 1.7 0.00 0.00 0.00 57 1017.4
20260506170107 67 247 0.9 2.6 0.00 0.00 0.00 56 1017.4
20260506165107 67 225 0.0 0.0 0.00 0.00 0.00 55 1017.3
20260506164107 67 180 0.9 3.5 0.00 0.00 0.00 54 1017.2
20260506163107 67 225 0.9 1.7 0.00 0.00 0.00 54 1017.2
20260506162107 67 270 0.9 0.9 0.00 0.00 0.00 54 1017.1
20260506161107 68 180 1.7 3.5 0.00 0.00 0.00 53 1017.0
20260506160107 68 225 0.0 0.0 0.00 0.00 0.00 54 1016.9
20260506155107 67 180 1.7 2.6 0.00 0.00 0.00 56 1016.9
20260506154107 68 225 3.5 6.1 0.00 0.00 0.00 55 1017.0
20260506153107 68 180 0.9 3.5 0.00 0.00 0.00 54 1017.0
20260506152107 68 180 0.9 4.3 0.00 0.00 0.00 51 1017.0
20260506151107 68 202 0.9 2.6 0.00 0.00 0.00 53 1017.0
20260506150107 68 225 1.7 5.2 0.00 0.00 0.00 52 1016.9
20260506145107 69 180 0.9 3.5 0.00 0.00 0.00 51 1016.7
20260506144107 69 180 0.0 0.0 0.00 0.00 0.00 49 1016.7